Regional Weather Roundup
Issued by NWS

Home | Current Version | Previous Version | Text Only | Print | Product List | Glossary On
Versions: 1 2 3 4 5 6 7 8 9 10 11 12 13 14 15 16 17 18 19 20 21 22 23 24 25 26 27 28 29 30 31 32 33 34 35 36 37 38 39 40 41 42 43 44 45 46 47 48 49 50
000
ASUS46 KSEW 012110
RWRWA

WASHINGTON REGIONAL WEATHER ROUNDUP
NATIONAL WEATHER SERVICE SEATTLE WA
100 PM PST SUN MAR 01 2015

NOTE:"FAIR" INDICATES FEW OR NO CLOUDS BELOW 12,000 FEET WITH NO
SIGNIFICANT WEATHER AND/OR OBSTRUCTIONS TO VISIBILITY.

WAZ505-507>509-012200-
SEATTLE, TACOMA, EVERETT, AND VICINITY

CITY           SKY/WX    TMP DP  RH WIND       PRES   REMARKS
EVERETT        CLOUDY    49  33  54 W6        30.12F
BOEING FIELD   PTSUNNY   54  30  40 S5        30.13F
RENTON         PTSUNNY   53  28  38 S6        30.13F
SEATAC AIRPORT CLOUDY    51  26  37 SW6       30.13F
JBLM-MCCHORD   PTSUNNY   54  31  41 W6        30.12F
PUYALLUP       FAIR      55  23  28 W5        30.12F
BREMERTON      PTSUNNY   50  32  50 SE6       30.15F
JBLM-FT LEWIS  PTSUNNY   55  30  38 SW7       30.11F
TACOMA NARROWS PTSUNNY   50  31  48 S3        30.13F
$$

WAZ001-503-506-510-514-515-012200-
NORTH INTERIOR

CITY           SKY/WX    TMP DP  RH WIND       PRES   REMARKS
BELLINGHAM     CLOUDY    47  29  49 SW6       30.14F
FRIDAY HARBOR  CLOUDY    49  34  56 E5        30.15F
EASTSOUND      CLOUDY    46  37  71 CALM      30.13F
PORT ANGELES   CLOUDY    46  39  76 VRB3      30.14F
NAS WHIDBEY    CLOUDY    52  31  44 CALM      30.14F
ARLINGTON      CLOUDY    52  30  43 SW9       30.14F
BURLINGTON     SUNNY     50  37  62 SW8       30.15F
$$

WAZ020-022-039-040-504-511-512-012200-
SOUTHWEST INTERIOR

CITY           SKY/WX    TMP DP  RH WIND       PRES   REMARKS
SHELTON        PTSUNNY   53  30  41 SW12      30.10F
OLYMPIA        PTSUNNY   54  27  35 S7        30.13F
CHEHALIS       FAIR      57  28  33 SW6       30.13F
KELSO          MOSUNNY   55  28  35 CALM      30.18F
VANCOUVER      SUNNY     51  28  41 W6        30.14F
SCAPPOOSE, OR  SUNNY     54  31  41 SE5       30.14F
PORTLAND, OR   MOSUNNY   52  29  41 W7        30.15F
$$

WAZ021-516-517-012200-
WASHINGTON COAST

CITY           SKY/WX    TMP DP  RH WIND       PRES   REMARKS
FORKS          CLOUDY    50  37  61 SW6       30.14F
HOQUIAM        PTSUNNY   51  43  74 SW7       30.15F
ASTORIA, OR    PTSUNNY   52  33  48 NW7       30.15F
$$

WAZ019-023-024-040-518-519-012200-
CASCADE MOUNTAINS AND COLUMBIA GORGE

CITY           SKY/WX    TMP DP  RH WIND       PRES   REMARKS
TROUTDALE, OR  SUNNY     53  32  44 VRB3      30.13F
THE DALLES, OR SUNNY     51  16  24 CALM      30.16F
$$

WAZ026-027-041>044-520-521-012200-
EAST SLOPES

CITY           SKY/WX    TMP DP  RH WIND       PRES   REMARKS
OMAK           MOSUNNY   47  18  31 S13G18    30.11F
WENATCHEE      SUNNY     44  24  45 SE14      30.12F
ELLENSBURG     SUNNY     49  21  33 VRB3      30.11F
YAKIMA         SUNNY     52  23  32 S9        30.13F
$$

WAZ028-034-035-012200-
COLUMBIA BASIN

CITY           SKY/WX    TMP DP  RH WIND       PRES   REMARKS
EPHRATA        MOSUNNY   43  21  41 S6        30.14F
MOSES LAKE     MOSUNNY   45  20  36 S6        30.15F
PASCO          SUNNY     49  18  29 CALM      30.18F
HERMISTON, OR  SUNNY     49  17  28 VRB3      30.16F
$$

WAZ036>038-012200-
NORTHEAST WASHINGTON

CITY           SKY/WX    TMP DP  RH WIND       PRES   REMARKS
SPOKANE GEIGER PTSUNNY   41  10  28 SE9       30.13F
SPOKANE FELTS  MOSUNNY   43  11  27 CALM      30.15F
FAIRCHILD AFB  MOSUNNY   40  12  30 SE8       30.12F
COEURDALENE,ID PTSUNNY   41   9  26 CALM      30.13F
DEER PARK      CLOUDY    40   8  26 S8        30.14F
$$

WAZ029>033-012200-
SOUTHEAST WASHINGTON

CITY           SKY/WX    TMP DP  RH WIND       PRES   REMARKS
PULLMAN        MOSUNNY   42  15  33 S6        30.14F
LEWISTON, ID   SUNNY     44  18  35 CALM      30.16F
WALLA WALLA    SUNNY     48  13  24 CALM      30.15F
PENDLETON, OR  SUNNY     48  11  22 SW6       30.13F
$$


USA.gov is the U.S. government's official web portal to all federal, state and local government web resources and services.